Location: Unspecified
(41.5000°N, 0.0000°E)
Time: 06:13:51
(UTC+00:00)

deb Explorer IX - Pass Details

Date: 28 June 2019
Orbit: 544 x 1107 km, 38.8° (Epoch: 12 October)

Event Time Altitude Azimuth Distance (km) Brightness Sun altitude
Rises 18:11:22 0° 271° (W) 3,922 ? 13.7°
Reaches altitude 10° 18:16:44 10° 239° (WSW) 2,938 ? 12.8°
Maximum altitude 18:18:36 11° 224° (SW) 2,834 ? 12.5°
Drops below altitude 10° 18:20:27 10° 209° (SSW) 2,889 ? 12.1°
Sets 18:25:35 0° 176° (S) 3,735 ? 11.2°
